Terminal Aerodrome Forecast
Issued by NWS

Home | Current Version | Previous Version | Text Only | Print | Product List | Glossary On
Versions: 1 2 3 4 5 6 7 8 9 10 11 12 13 14 15 16 17 18 19 20 21 22 23 24 25 26 27 28 29 30
000
FTUS46 KSEW 281200 AAA
TAFSEA
TAF AMD
KSEA 281214Z 2812/2918 VRB03KT P6SM SCT003 OVC008
      TEMPO 2812/2815 3SM BR BKN003 OVC008
     FM281500 VRB03KT P6SM OVC005
      TEMPO 2815/2817 2SM -DZ BR OVC002
     FM281700 VRB03KT P6SM OVC009
     FM281900 VRB03KT P6SM OVC020
     FM282100 34005KT P6SM BKN040
     FM290000 03004KT P6SM SCT050 BKN100
     FM290400 04004KT P6SM OVC050=

USA.gov is the U.S. government's official web portal to all federal, state and local government web resources and services.